CW4778 Auckland NZ current weather conditions

sailwx.info

Wind from 327

Air temperature 7.8° C
Dewpoint 7.6° C

Last reported at 2016-May-31 20:48 UTC.
Time now 2016-May-31 21:55 UTC

Location: S 36°52' E 174°44'.
View on Google Maps.

See reports from other nearby stations

  
Tides and Currents Weather Stations Pressure Air Temp Water Temp Dewpoint Dewpoint Depression Visibility Wind Speed Wind Dir Waves Ship Positions
date/time (UTC)wind fromknots sea level pressurealtimeterstation pressurevisibilityair tempwater tempwave heightnotes
2016-May-31 20:48 327 7.8
2016-May-31 20:38 345 7.8
2016-May-31 20:28 329 7.2
2016-May-31 20:18 331 7.2
2016-May-31 20:08 331 7.2
2016-May-31 19:58 329 6.7
2016-May-31 19:48 327 6.7
2016-May-31 19:38 330 6.7
2016-May-31 19:18 330 6.7
2016-May-31 19:08 344 6.7
2016-May-31 18:48 330 6.1
2016-May-31 18:28 330 6.7
2016-May-31 18:18 328 6.7
2016-May-31 18:08 328 6.7
2016-May-31 17:58 329 6.7
2016-May-31 17:38 331 7.2
2016-May-31 17:28 331 7.2
2016-May-31 17:18 327 7.2
2016-May-31 17:08 330 7.8
2016-May-31 16:58 329 7.2
2016-May-31 16:48 328 7.2
2016-May-31 16:38 345 7.2
2016-May-31 16:18 329 7.8
2016-May-31 16:08 338 7.2
2016-May-31 15:58 337 7.2
2016-May-31 15:48 338 7.2
2016-May-31 14:48 006 7.8
2016-May-31 14:38 004 8.3
2016-May-31 14:18 005 8.3
2016-May-31 14:08 007 8.9
2016-May-31 13:48 002 1 gusting 4 9.4
2016-May-31 13:18 304 9.4
2016-May-31 13:08 332 9.4
2016-May-31 12:58 303 0 gusting 1 9.4
2016-May-31 12:48 301 9.4
2016-May-31 12:38 302 9.4
2016-May-31 12:28 303 9.4
2016-May-31 12:09 303 0 gusting 2 9.4
2016-May-31 11:58 006 4 gusting 6 9.4
2016-May-31 11:48 242 0 gusting 1 9.4
2016-May-31 11:38 242 9.4
2016-May-31 11:28 242 9.4
2016-May-31 11:08 242 0 gusting 2 9.4
2016-May-31 10:48 238 9.4
2016-May-31 10:38 238 9.4
2016-May-31 10:18 215 0 gusting 2 9.4
2016-May-31 10:08 226 1 gusting 1 8.9
2016-May-31 09:58 233 8.9
2016-May-31 09:48 232 8.9
2016-May-31 09:38 233 8.9
2016-May-31 09:28 231 8.9
2016-May-31 09:18 231 8.9
2016-May-31 09:08 232 8.9
2016-May-31 08:58 232 8.9
2016-May-31 08:48 232 0 gusting 1 8.9
2016-May-31 08:38 231 8.9
2016-May-31 07:58 228 0 gusting 10 9.4
2016-May-31 07:28 267 0 gusting 5 10.0
2016-May-31 06:58 270 10.0
2016-May-31 06:48 273 10.0
2016-May-31 06:38 337 0 gusting 2 10.0
2016-May-31 06:28 285 10.0
2016-May-31 06:08 283 0 gusting 4 10.0
2016-May-31 05:48 250 10.0
2016-May-31 05:18 256 11 gusting 19 10.6
2016-May-31 05:08 247 4 gusting 7 10.6
2016-May-31 04:48 304 4 gusting 10 11.7
2016-May-31 04:28 186 4 gusting 6 12.8
2016-May-31 04:18 301 4 gusting 11 12.8
2016-May-31 04:08 251 5 gusting 7 12.8
2016-May-31 03:58 282 6 gusting 13 13.3
2016-May-31 03:48 244 8 gusting 17 12.8
2016-May-31 03:38 265 8 gusting 17 13.3
2016-May-31 03:28 265 9 gusting 13 13.3
2016-May-31 03:18 267 9 gusting 20 13.3
2016-May-31 02:58 261 8 gusting 13 13.9
2016-May-31 02:38 234 7 gusting 18 13.3
2016-May-31 02:28 247 7 gusting 18 13.3
2016-May-31 02:18 237 7 gusting 15 13.3
2016-May-31 02:08 258 8 gusting 17 13.3
2016-May-31 01:38 269 10 gusting 14 12.8
2016-May-31 01:18 235 4 gusting 13 13.9
2016-May-31 01:08 245 6 gusting 13 13.9
2016-May-31 00:48 315 7 gusting 18 13.9
2016-May-31 00:28 247 6 gusting 17 15.0
2016-May-31 00:18 239 4 gusting 13 15.0
2016-May-30 23:58 251 9 gusting 15 13.9
2016-May-30 23:28 297 5 gusting 7 13.3
2016-May-30 23:18 266 5 gusting 11 13.3
2016-May-30 22:38 258 2 gusting 7 13.9
2016-May-30 22:18 238 6 gusting 18 11.7
2016-May-30 22:08 194 10 gusting 19 13.9
2016-May-30 21:58 259 4 gusting 10 12.8
2016-May-30 21:48 247 5 gusting 15 11.7
2016-May-30 21:38 275 12 gusting 19 12.2
2016-May-30 21:18 317 5 gusting 26 12.2
2016-May-30 21:08 329 3 gusting 8 13.3
2016-May-30 20:58 286 2 gusting 10 11.7
2016-May-30 20:48 258 5 gusting 15 10.6
2016-May-30 20:38 328 4 gusting 10 10.6
2016-May-30 20:18 253 5 gusting 8 10.0
2016-May-30 20:08 272 2 gusting 7 9.4
2016-May-30 19:58 270 4 gusting 13 9.4
2016-May-30 19:38 272 2 gusting 7 9.4
2016-May-30 19:28 326 0 gusting 6 8.9
2016-May-30 19:18 266 0 gusting 2 8.9
2016-May-30 19:08 265 8.9
2016-May-30 18:58 313 8.9
2016-May-30 18:48 265 8.9
2016-May-30 18:38 263 8.9
2016-May-30 18:28 331 0 gusting 4 9.4
2016-May-30 18:18 304 2 gusting 6 9.4
2016-May-30 18:08 272 4 gusting 21 9.4
2016-May-30 17:58 270 2 gusting 5 9.4
2016-May-30 17:48 321 0 gusting 5 8.9
2016-May-30 17:28 272 9.4
2016-May-30 16:58 277 4 gusting 7 8.9
2016-May-30 16:38 259 9.4
2016-May-30 16:28 265 9.4
2016-May-30 16:18 267 9.4
2016-May-30 15:48 268 0 gusting 5 10.0
2016-May-30 15:38 273 0 gusting 4 9.4
2016-May-30 15:28 266 9.4
2016-May-30 15:18 266 0 gusting 4 9.4
2016-May-30 15:08 254 9.4
2016-May-30 14:58 259 0 gusting 1 10.0
2016-May-30 14:48 257 0 gusting 5 10.6
2016-May-30 14:38 252 1 gusting 5 10.6
2016-May-30 14:28 288 1 gusting 4 11.1
2016-May-30 14:08 331 1 gusting 5 10.6
2016-May-30 13:58 278 2 gusting 8 10.6
2016-May-30 13:48 308 3 gusting 6 10.6
2016-May-30 13:38 284 4 gusting 7 10.6
2016-May-30 13:28 347 4 gusting 8 10.6
2016-May-30 13:18 320 1 gusting 6 10.6
2016-May-30 13:08 323 2 gusting 4 10.6
2016-May-30 12:58 303 1 gusting 13 10.6
2016-May-30 12:38 263 9.4
2016-May-30 12:28 265 9.4
2016-May-30 12:18 264 9.4
2016-May-30 12:09 264 9.4
2016-May-30 11:48 265 9.4
2016-May-30 11:18 262 10.0
2016-May-30 11:08 264 10.0
2016-May-30 10:58 265 10.6
2016-May-30 10:48 270 0 gusting 6 10.6
2016-May-30 10:38 265 1 gusting 5 10.6
2016-May-30 10:28 263 0 gusting 7 11.1
2016-May-30 10:18 252 2 gusting 11 11.1
2016-May-30 10:08 284 4 gusting 18 11.1
2016-May-30 09:58 279 2 gusting 6 11.1
2016-May-30 09:48 322 1 gusting 5 11.1
2016-May-30 09:28 290 4 gusting 6 11.7
2016-May-30 09:18 335 4 gusting 6 11.7
2016-May-30 09:08 327 3 gusting 6 11.1
2016-May-30 08:58 299 0 gusting 4 11.1
2016-May-30 08:48 291 11.1
2016-May-30 08:28 294 11.1
2016-May-30 08:18 343 1 gusting 1 11.1
2016-May-30 08:08 288 11.1
2016-May-30 07:58 288 1 gusting 2 11.7
2016-May-30 07:48 286 1 gusting 7 11.7
2016-May-30 07:18 269 0 gusting 2 12.2
2016-May-30 07:08 268 0 gusting 4 12.8
2016-May-30 06:58 263 2 gusting 12 13.3
2016-May-30 06:48 261 2 gusting 6 13.3
2016-May-30 06:38 290 3 gusting 7 13.3
2016-May-30 06:28 309 3 gusting 12 13.3
2016-May-30 06:08 283 2 gusting 6 13.3
2016-May-30 05:58 282 2 gusting 6 13.3
2016-May-30 05:48 266 2 gusting 7 13.9
2016-May-30 05:28 255 0 gusting 8 13.9
2016-May-30 05:18 248 4 gusting 10 13.9
2016-May-30 05:08 257 3 gusting 7 13.9
2016-May-30 04:58 251 4 gusting 10 13.9
2016-May-30 04:48 280 3 gusting 8 14.4
2016-May-30 04:38 253 6 gusting 12 14.4
2016-May-30 04:28 268 5 gusting 11 14.4
2016-May-30 04:18 278 5 gusting 15 15.0
2016-May-30 03:58 250 6 gusting 13 15.0
2016-May-30 03:28 253 7 gusting 14 16.7
2016-May-30 03:08 280 10 gusting 17 16.1
2016-May-30 02:58 257 7 gusting 21 16.7
2016-May-30 02:38 258 10 gusting 19 16.7
2016-May-30 02:28 300 7 gusting 17 17.2
2016-May-30 02:08 264 6 gusting 15 16.7
2016-May-30 01:58 301 8 gusting 17 16.1
2016-May-30 01:38 328 6 gusting 15 16.7
2016-May-30 01:28 292 11 gusting 17 16.1
2016-May-30 01:18 241 10 gusting 17 16.1
2016-May-30 01:08 230 7 gusting 18 16.7
2016-May-30 00:58 242 6 gusting 13 17.2
2016-May-30 00:48 281 5 gusting 15 16.7
2016-May-30 00:38 256 10 gusting 15 16.1
2016-May-30 00:18 255 8 gusting 14 15.6
2016-May-30 00:08 269 7 gusting 13 15.0
2016-May-29 23:58 259 8 gusting 18 16.1
2016-May-29 23:48 266 7 gusting 13 17.8
2016-May-29 23:38 258 6 gusting 15 17.2
2016-May-29 23:28 264 6 gusting 14 16.1
2016-May-29 22:48 250 4 gusting 12 15.6
2016-May-29 22:38 267 8 gusting 14 15.6
2016-May-29 22:28 240 6 gusting 13 15.0
2016-May-29 22:18 249 5 gusting 11 13.3
2016-May-29 22:08 287 6 gusting 13 13.9
2016-May-29 21:38 278 6 gusting 13 15.0
2016-May-29 21:28 275 6 gusting 10 15.0
2016-May-29 21:18 258 5 gusting 12 14.4
2016-May-29 21:08 263 4 gusting 10 13.9